����29�N�x�@��C��������Ԃɂ�鑪�茋��,,,,,,,,,,,,
,,,,,,,,,,,,
�P�@����n�_,,,,,,,,,,,,
���C�s�V��i���C�s�V��1-1�j,,,,,,,,,,,,
,,,,,,,,,,,,
�Q�@���Ԓl�i�m��l�j������29�N10��5���`����29�N10��27��,,,,,,,,,,,,
,,,,,,,,,,,,
,�N,��,��,��,SO2,SPM,Ox,CO,NO,NO2,���x,���x
,,,,,ppm,mg/m3,ppm,ppm,ppm,ppm,��,%
H01,2017,10,5,1,***,0.021,0.022,***,***,***,16.3,48.2
H01,2017,10,5,2,***,0.021,0.026,0.2,***,***,16.6,44.6
H01,2017,10,5,3,***,0.023,0.027,0.2,0.001,0.01,16.2,44.6
H01,2017,10,5,4,***,0.026,0.027,0.2,0.001,0.008,16.1,45.3
H01,2017,10,5,5,***,0.021,0.025,0.2,0.002,0.011,16.1,45.3
H01,2017,10,5,6,***,0.014,0.023,0.2,0.003,0.013,15.7,46.9
H01,2017,10,5,7,***,0.039,0.018,0.2,0.008,0.02,15.9,47.4
H01,2017,10,5,8,***,0.027,0.017,0.2,0.011,0.021,16.3,47.7
H01,2017,10,5,9,***,0.019,0.017,0.2,0.01,0.019,17.1,47
H01,2017,10,5,10,***,0.033,0.019,0.2,0.01,0.018,18.9,44.2
H01,2017,10,5,11,***,0.023,0.016,0.3,0.029,0.027,20.6,39.5
H01,2017,10,5,12,***,0.043,0.019,0.2,0.028,0.033,22.1,40.4
H01,2017,10,5,13,***,0.034,0.024,0.7,0.025,0.03,22.1,43.5
H01,2017,10,5,14,***,0.045,0.028,0.4,0.017,0.027,22.9,43.6
H01,2017,10,5,15,***,0.048,0.015,0.9,0.056,0.046,22.8,46.3
H01,2017,10,5,16,***,0.048,0.014,0.8,0.049,0.051,22.2,48.2
H01,2017,10,5,17,***,0.045,0.012,0.9,0.04,0.044,21,54.7
H01,2017,10,5,18,***,0.029,0.011,0.4,0.023,0.043,20.1,58.8
H01,2017,10,5,19,***,0.022,0.025,0.4,0.002,0.025,19.5,53.6
H01,2017,10,5,20,***,0.034,0.022,0.3,0.001,0.026,19.5,53.5
H01,2017,10,5,21,***,0.005,0.023,0.3,0,0.022,19,54
H01,2017,10,5,22,***,0.019,0.027,0.3,0,0.015,18.7,55.1
H01,2017,10,5,23,***,0.025,0.022,0.3,0,0.016,18.6,57.1
H01,2017,10,5,24,***,0.028,0.016,0.3,0,0.019,18.7,62
H01,2017,10,6,1,***,0.033,0.017,0.3,0,0.014,18.6,63.8
H01,2017,10,6,2,***,0.033,0.013,0.4,0.003,0.021,18.3,64.2
H01,2017,10,6,3,***,0.032,0.005,0.4,0.01,0.032,18.3,67.5
H01,2017,10,6,4,***,0.045,0.002,0.5,0.021,0.036,18.3,69.2
H01,2017,10,6,5,***,0.048,0.001,0.5,0.021,0.035,18.3,70.2
H01,2017,10,6,6,***,0.052,0.002,0.5,0.031,0.035,18.3,69.1
H01,2017,10,6,7,***,0.043,0.002,0.6,0.03,0.032,18.4,70.3
H01,2017,10,6,8,***,0.039,0.004,0.6,0.037,0.033,19.5,58.8
H01,2017,10,6,9,***,0.029,0.008,0.5,0.018,0.031,20.2,54.7
H01,2017,10,6,10,***,0.033,0.01,0.5,0.018,0.029,20.7,57.1
H01,2017,10,6,11,***,0.026,0.009,0.4,0.026,0.031,20.8,57.2
H01,2017,10,6,12,***,0.052,0.005,0.5,0.053,0.039,19.8,68.4
H01,2017,10,6,13,***,0.053,0.007,0.5,0.022,0.032,18.6,76.1
H01,2017,10,6,14,***,0.044,0.007,0.4,0.024,0.029,18.3,80
H01,2017,10,6,15,***,0.053,0.006,0.4,0.024,0.032,17.5,85.8
H01,2017,10,6,16,***,0.033,0.008,0.5,0.017,0.028,17,86.1
H01,2017,10,6,17,***,0.039,0.007,0.5,0.014,0.026,16.2,87.1
H01,2017,10,6,18,***,0.025,0.012,0.5,0.009,0.024,15.5,87.3
H01,2017,10,6,19,***,0.019,0.012,0.4,0.007,0.024,15.9,89.3
H01,2017,10,6,20,***,0.032,0.012,0.4,0.003,0.023,16.2,89.5
H01,2017,10,6,21,***,0.027,0.015,0.4,0.002,0.021,16,89.3
H01,2017,10,6,22,***,0.024,0.015,0.4,0.002,0.021,15.9,89.8
H01,2017,10,6,23,***,0.023,0.015,0.3,0.003,0.022,16,90.4
H01,2017,10,6,24,***,0.026,0.015,0.3,0.004,0.021,15.9,90.7
H01,2017,10,7,1,***,0.02,0.023,0.3,0.001,0.013,16.1,91
H01,2017,10,7,2,***,0.027,0.022,0.3,0.001,0.013,16.3,90.9
H01,2017,10,7,3,***,0.028,0.018,0.3,0.003,0.018,16.6,90.5
H01,2017,10,7,4,***,0.021,0.016,0.3,0.002,0.021,16.5,90.8
H01,2017,10,7,5,***,0.028,0.012,0.3,0.003,0.023,16.7,90.7
H01,2017,10,7,6,***,0.021,0.013,0.4,0.002,0.023,16.8,90.8
H01,2017,10,7,7,***,0.025,0.008,0.4,0.01,0.03,17.1,91.2
H01,2017,10,7,8,***,0.04,0.009,0.4,0.012,0.029,18,90.9
H01,2017,10,7,9,***,0.033,0.014,0.4,0.011,0.025,18.9,86.3
H01,2017,10,7,10,***,0.04,0.007,0.5,0.042,0.035,20.5,82.2
H01,2017,10,7,11,***,0.036,0.013,0.4,0.031,0.028,21.6,75.8
H01,2017,10,7,12,***,0.033,0.021,0.3,0.016,0.021,22.4,69.6
H01,2017,10,7,13,***,0.028,0.025,0.2,0.009,0.016,22.9,73.2
H01,2017,10,7,14,***,0.029,0.027,0.2,0.011,0.016,23.7,67.7
H01,2017,10,7,15,***,0.025,0.03,0.2,0.01,0.02,24.3,65.9
H01,2017,10,7,16,***,0.022,0.028,0.2,0.01,0.02,24,63.5
H01,2017,10,7,17,***,0.029,0.016,0.2,0.014,0.029,23.7,65.4
H01,2017,10,7,18,***,0.029,0.011,0.3,0.012,0.036,23,70.9
H01,2017,10,7,19,***,0.027,0.015,0.4,0.004,0.029,23,73.3
H01,2017,10,7,20,***,0.027,0.009,0.4,0.003,0.03,21.9,77.3
H01,2017,10,7,21,***,0.032,0.007,0.4,0.002,0.026,21.2,83.4
H01,2017,10,7,22,***,0.041,0.002,0.7,0.009,0.033,20.7,84
H01,2017,10,7,23,***,0.04,0.008,0.5,0.004,0.026,20.9,82.8
H01,2017,10,7,24,***,0.023,0.009,0.3,0.002,0.018,20.4,86.2
H01,2017,10,8,1,***,0.038,0.004,0.4,0.001,0.017,19.5,87.7
H01,2017,10,8,2,***,0.039,0.002,0.4,0.006,0.018,18.9,89.4
H01,2017,10,8,3,***,0.027,0.001,0.5,0.007,0.018,18.8,90.2
H01,2017,10,8,4,***,0.039,0.001,0.5,0.008,0.017,19,91.1
H01,2017,10,8,5,***,0.027,0.002,0.4,0.005,0.015,18.3,90.5
H01,2017,10,8,6,***,0.024,0.001,0.5,0.014,0.014,17.7,90.5
H01,2017,10,8,7,***,0.019,0.002,0.5,0.02,0.012,18.9,91.8
H01,2017,10,8,8,***,0.023,0.006,0.5,0.013,0.011,21.6,73.5
H01,2017,10,8,9,***,0.017,0.011,0.4,0.008,0.008,23,68
H01,2017,10,8,10,***,0.038,0.022,0.3,0.002,0.005,24.8,64
H01,2017,10,8,11,***,0.023,0.032,0.2,0.001,0.003,25.7,62.2
H01,2017,10,8,12,***,0.031,0.04,0.2,0.001,0.003,27.2,59.2
H01,2017,10,8,13,***,0.025,0.039,0.2,0.002,0.006,28.5,53.7
H01,2017,10,8,14,***,0.043,0.029,1.1,0.013,0.027,29,53
H01,2017,10,8,15,***,0.041,0.036,0.8,0.009,0.027,28.3,54.3
H01,2017,10,8,16,***,0.057,0.032,1.4,0.012,0.035,27,57.8
H01,2017,10,8,17,***,0.04,0.042,0.5,0.001,0.014,26.3,60.3
H01,2017,10,8,18,***,0.034,0.041,0.4,0,0.014,25.5,65.1
H01,2017,10,8,19,***,0.044,0.045,0.3,0,0.008,23.8,73.5
H01,2017,10,8,20,***,0.046,0.044,0.3,0,0.01,23.4,78.3
H01,2017,10,8,21,***,0.025,0.043,0.3,0,0.007,23.2,77.5
H01,2017,10,8,22,***,0.031,0.042,0.2,0,0.005,22.9,78.2
H01,2017,10,8,23,***,0.027,0.036,0.3,0,0.007,23,80
H01,2017,10,8,24,***,0.035,0.035,0.3,0,0.008,22.5,81.5
H01,2017,10,9,1,***,0.037,0.024,0.6,0,0.01,22.3,84.7
H01,2017,10,9,2,***,0.034,0.023,0.6,0,0.01,21.9,82.4
H01,2017,10,9,3,***,0.032,0.025,0.6,0,0.008,21.6,81.5
H01,2017,10,9,4,***,0.03,0.018,0.6,0,0.009,20.9,85.4
H01,2017,10,9,5,***,0.028,0.013,0.6,0.001,0.011,21.2,86.6
H01,2017,10,9,6,***,0.027,0.012,0.6,0.002,0.012,21.4,82.5
H01,2017,10,9,7,***,0.036,0.003,0.6,0.007,0.02,21.6,82.9
H01,2017,10,9,8,***,0.034,0.007,0.6,0.006,0.017,22.5,77.7
H01,2017,10,9,9,***,0.027,0.015,0.3,0.005,0.013,23.6,70.4
H01,2017,10,9,10,***,0.058,0.01,0.5,0.022,0.028,23.9,72.3
H01,2017,10,9,11,***,0.05,0.012,0.4,0.024,0.031,24.4,68.9
H01,2017,10,9,12,***,0.052,0.018,0.4,0.017,0.032,24.4,69
H01,2017,10,9,13,***,0.059,0.01,0.7,0.024,0.039,24.8,70
H01,2017,10,9,14,***,0.066,0.023,1,0.019,0.035,25.7,65.1
H01,2017,10,9,15,***,0.05,0.029,0.5,0.013,0.031,25.7,64
H01,2017,10,9,16,***,0.054,0.023,1.1,0.021,0.038,26,63.2
H01,2017,10,9,17,***,0.067,0.007,1.8,0.049,0.05,24.8,67.9
H01,2017,10,9,18,***,0.057,0.007,1.7,0.038,0.044,24.2,71.4
H01,2017,10,9,19,***,0.034,0.017,0.6,0.009,0.032,23,73.5
H01,2017,10,9,20,***,0.049,0.015,0.4,0.003,0.032,22.4,77.8
H01,2017,10,9,21,***,0.033,0.025,0.4,0.001,0.018,22,79.4
H01,2017,10,9,22,***,0.034,0.02,0.4,0.001,0.019,21.3,79.8
H01,2017,10,9,23,***,0.047,0.016,0.4,0.001,0.018,20.9,84
H01,2017,10,9,24,***,0.04,0.005,0.5,0.003,0.027,20.7,86.2
H01,2017,10,10,1,***,0.035,0.002,0.5,0.003,0.025,20.6,86
H01,2017,10,10,2,***,0.04,0.005,0.4,0.002,0.015,19.8,87.1
H01,2017,10,10,3,***,0.035,0.003,0.4,0.004,0.016,19.8,88.4
H01,2017,10,10,4,***,0.054,0.002,0.4,0.028,0.017,20.1,89.5
H01,2017,10,10,5,***,0.062,0.001,0.5,0.036,0.026,20.7,90.3
H01,2017,10,10,6,***,0.055,0.001,0.6,0.051,0.026,20.4,89.2
H01,2017,10,10,7,***,0.069,0.002,0.6,0.085,0.024,21.4,87.4
H01,2017,10,10,8,***,0.083,0.004,0.6,0.064,0.028,23.3,71.5
H01,2017,10,10,9,***,0.062,0.011,0.5,0.025,0.028,24.8,67.7
H01,2017,10,10,10,***,0.048,0.017,0.4,0.03,0.028,26.1,62.1
H01,2017,10,10,11,***,0.049,0.026,0.4,0.027,0.026,27.5,57.7
H01,2017,10,10,12,***,0.054,0.04,0.3,0.016,0.024,28.5,54.3
H01,2017,10,10,13,***,0.053,0.045,0.3,0.01,0.022,29.4,49
H01,2017,10,10,14,***,0.047,0.04,0.2,0.011,0.015,29.5,46.8
H01,2017,10,10,15,***,0.039,0.04,0.2,0.011,0.017,29.7,45.9
H01,2017,10,10,16,***,0.054,0.038,0.3,0.012,0.019,29.3,46.5
H01,2017,10,10,17,***,0.044,0.031,0.3,0.01,0.023,28.2,46.9
H01,2017,10,10,18,***,0.04,0.026,0.4,0.01,0.023,26.7,52.1
H01,2017,10,10,19,***,0.047,0.024,0.4,0.008,0.021,25.8,55.1
H01,2017,10,10,20,***,0.045,0.021,0.4,0.005,0.024,25.1,56.6
H01,2017,10,10,21,***,0.032,0.033,0.3,0.001,0.014,24.6,57.8
H01,2017,10,10,22,***,0.037,0.031,0.3,0,0.016,23.6,61.8
H01,2017,10,10,23,***,0.036,0.024,0.3,0.002,0.021,23.3,64.7
H01,2017,10,10,24,***,0.032,0.023,0.3,0.003,0.019,23.1,65.4
H01,2017,10,11,1,***,0.037,0.016,0.3,0.004,0.026,22.5,66.6
H01,2017,10,11,2,***,0.038,0.021,0.3,0.002,0.021,22.1,68.7
H01,2017,10,11,3,***,0.027,0.011,0.3,0.006,0.028,21.2,74.6
H01,2017,10,11,4,***,0.039,0.002,0.3,0.013,0.032,20.4,79.9
H01,2017,10,11,5,***,0.047,0.005,0.3,0.012,0.032,20.6,80.3
H01,2017,10,11,6,***,0.041,0.002,0.4,0.041,0.039,20.7,79.2
H01,2017,10,11,7,***,0.052,0.002,0.5,0.06,0.035,21.6,78.7
H01,2017,10,11,8,***,0.066,0.004,0.5,0.076,0.037,23.6,64.2
H01,2017,10,11,9,***,0.054,0.008,0.5,0.049,0.027,24.6,65.2
H01,2017,10,11,10,***,0.039,0.012,0.4,0.037,0.027,25.8,59.1
H01,2017,10,11,11,***,0.041,0.017,0.3,0.041,0.035,28.1,51.9
H01,2017,10,11,12,***,0.034,0.027,0.3,0.027,0.032,29.3,50.7
H01,2017,10,11,13,***,0.047,0.034,0.4,0.016,0.031,28.8,50.3
H01,2017,10,11,14,***,0.041,0.045,0.3,0.012,0.03,29.9,49.5
H01,2017,10,11,15,***,0.05,0.029,0.5,0.031,0.052,29.9,48.6
H01,2017,10,11,16,***,0.047,0.026,0.6,0.038,0.06,29.9,50.2
H01,2017,10,11,17,***,0.065,0.016,1.2,0.056,0.074,28.1,58.2
H01,2017,10,11,18,***,0.071,0.007,1.2,0.043,0.077,27.3,63.5
H01,2017,10,11,19,***,0.074,0.005,1,0.033,0.078,26,69.7
H01,2017,10,11,20,***,0.103,0.005,1.7,0.032,0.072,25.9,73.4
H01,2017,10,11,21,***,0.078,0.025,0.7,0.003,0.039,24.6,75.9
H01,2017,10,11,22,***,0.09,0.026,0.3,0.001,0.025,24,83.3
H01,2017,10,11,23,***,0.082,0.02,0.4,0.001,0.025,23.3,83
H01,2017,10,11,24,***,0.073,0.011,0.5,0.002,0.034,22.4,82.6
H01,2017,10,12,1,***,0.064,0.012,***,***,***,22.2,84.1
H01,2017,10,12,2,***,0.055,0.012,0.4,***,***,22.1,74.5
H01,2017,10,12,3,***,0.058,0.006,0.4,0.009,0.029,22,75.6
H01,2017,10,12,4,***,0.052,0.003,0.4,0.021,0.033,21.8,77.7
H01,2017,10,12,5,***,0.059,0.002,0.4,0.025,0.035,22.3,78.2
H01,2017,10,12,6,***,0.058,0.002,0.4,0.028,0.033,22.6,76.1
H01,2017,10,12,7,***,0.066,0.002,0.5,0.024,0.032,22.9,77.6
H01,2017,10,12,8,***,0.058,0.009,0.5,0.024,0.03,24.8,63.3
H01,2017,10,12,9,***,0.048,0.02,0.3,0.019,0.026,24.8,63.8
H01,2017,10,12,10,***,0.026,0.019,0.3,0.02,0.025,24.6,63
H01,2017,10,12,11,***,0.028,0.023,0.3,0.02,0.024,25.8,56.1
H01,2017,10,12,12,***,0.024,0.025,0.3,0.022,0.027,26.7,52.5
H01,2017,10,12,13,***,0.027,0.032,0.2,0.009,0.016,26.6,51.9
H01,2017,10,12,14,***,0.024,0.026,0.4,0.022,0.033,27.3,53.5
H01,2017,10,12,15,***,0.023,0.018,0.5,0.038,0.043,26,54.5
H01,2017,10,12,16,***,0.027,0.015,0.4,0.031,0.044,25.8,57.5
H01,2017,10,12,17,***,0.03,0.011,0.4,0.025,0.037,24.8,58.5
H01,2017,10,12,18,***,0.03,0.009,0.5,0.023,0.037,23.8,64
H01,2017,10,12,19,***,0.014,0.016,0.3,0.004,0.025,23.6,61.7
H01,2017,10,12,20,***,0.03,0.012,0.4,0.01,0.028,23.6,62.8
H01,2017,10,12,21,***,0.015,0.018,0.3,0.001,0.019,22.9,63.9
H01,2017,10,12,22,***,0.029,0.017,0.4,0.001,0.019,22.7,63.8
H01,2017,10,12,23,***,0.017,0.019,0.3,0.001,0.018,22.5,62.8
H01,2017,10,12,24,***,0.021,0.02,0.3,0.001,0.016,21.6,64.6
H01,2017,10,13,1,***,0.026,0.017,0.3,0.002,0.017,21.8,65.3
H01,2017,10,13,2,***,0.024,0.02,0.3,0.001,0.014,20.9,64.9
H01,2017,10,13,3,***,0.022,0.019,0.2,0.001,0.013,20.1,67.8
H01,2017,10,13,4,***,0.019,0.018,0.3,0.003,0.014,20,68.3
H01,2017,10,13,5,***,0.016,0.024,0.2,0.003,0.011,20,64.7
H01,2017,10,13,6,***,0.019,0.014,0.2,0.006,0.018,19.5,65.3
H01,2017,10,13,7,***,0.019,0.008,0.3,0.016,0.024,19.7,65
H01,2017,10,13,8,***,0.019,0.012,0.3,0.015,0.023,19.7,62.9
H01,2017,10,13,9,***,0.016,0.02,0.3,0.008,0.02,20.3,58.9
H01,2017,10,13,10,***,0.019,0.012,0.3,0.023,0.032,20.3,61.8
H01,2017,10,13,11,***,0.017,0.009,0.3,0.03,0.03,20.4,62.8
H01,2017,10,13,12,***,0.024,0.012,0.3,0.026,0.029,19.8,67
H01,2017,10,13,13,***,0.014,0.02,0.3,0.007,0.022,20.2,69.5
H01,2017,10,13,14,***,0.02,0.012,0.3,0.037,0.03,20.1,67.2
H01,2017,10,13,15,***,0.02,0.009,0.3,0.035,0.04,19.8,70.3
H01,2017,10,13,16,***,0.036,0.008,0.3,0.029,0.037,20,72.4
H01,2017,10,13,17,***,0.025,0.009,0.3,0.01,0.033,19.8,71.8
H01,2017,10,13,18,***,0.027,0.007,0.4,0.002,0.03,19.8,73.7
H01,2017,10,13,19,***,0.024,0.004,0.4,0.016,0.034,19.8,74.4
H01,2017,10,13,20,***,0.026,0.008,0.4,0.005,0.028,19.5,75.8
H01,2017,10,13,21,***,0.022,0.008,0.4,0.003,0.025,19.1,82.8
H01,2017,10,13,22,***,0.018,0.004,0.4,0.006,0.031,18.5,85.9
H01,2017,10,13,23,***,0.024,0.014,0.3,0.003,0.021,17.7,87.5
H01,2017,10,13,24,***,0.007,0.017,0.3,0.001,0.015,17.6,89.1
H01,2017,10,14,1,***,0.026,0.014,0.4,0.001,0.015,17.7,90
H01,2017,10,14,2,***,0.025,0.013,0.4,0.001,0.017,17.6,90.5
H01,2017,10,14,3,***,0.031,0.01,0.4,0.002,0.02,17.9,91.3
H01,2017,10,14,4,***,0.033,0.003,0.4,0.007,0.024,17.9,91.9
H01,2017,10,14,5,***,0.027,0.004,0.4,0.003,0.022,18,92.2
H01,2017,10,14,6,***,0.019,0.002,0.4,0.009,0.021,18.3,92.5
H01,2017,10,14,7,***,0.03,0.002,0.5,0.028,0.026,18.3,92.4
H01,2017,10,14,8,***,0.022,0.003,0.4,0.031,0.026,18.7,92.5
H01,2017,10,14,9,***,0.038,0.004,0.5,0.033,0.028,19.1,92.3
H01,2017,10,14,10,***,0.025,0.006,0.5,0.017,0.022,19.7,92.5
H01,2017,10,14,11,***,0.021,0.007,0.5,0.024,0.023,20.9,91.1
H01,2017,10,14,12,***,0.045,0.01,0.5,0.025,0.027,21.6,72.5
H01,2017,10,14,13,***,0.036,0.014,0.4,0.016,0.023,21.9,69.1
H01,2017,10,14,14,***,0.034,0.012,0.3,0.022,0.025,21.8,70.6
H01,2017,10,14,15,***,0.036,0.015,0.3,0.014,0.02,22.3,65
H01,2017,10,14,16,***,0.023,0.016,0.3,0.01,0.022,21.8,66.4
H01,2017,10,14,17,***,0.027,0.016,0.3,0.002,0.021,21.3,68.8
H01,2017,10,14,18,***,0.044,0.008,0.4,0.004,0.029,20.6,76.3
H01,2017,10,14,19,***,0.043,0.011,0.4,0.002,0.027,20.3,76.7
H01,2017,10,14,20,***,0.029,0.01,0.4,0.003,0.026,20.4,79.2
H01,2017,10,14,21,***,0.035,0.006,0.3,0.004,0.028,20.3,79
H01,2017,10,14,22,***,0.039,0.001,0.4,0.004,0.027,19.7,84
H01,2017,10,14,23,***,0.038,0.001,0.5,0.005,0.027,19.7,83.4
H01,2017,10,14,24,***,0.031,0.007,0.5,0.004,0.024,20.2,74.3
H01,2017,10,15,1,***,0.032,0.013,0.3,0.001,0.017,19.8,73.5
H01,2017,10,15,2,***,0.027,0.009,0.4,0.001,0.014,19.5,81.4
H01,2017,10,15,3,***,0.032,0.003,0.3,0.004,0.015,19.2,80.2
H01,2017,10,15,4,***,0.025,0.006,0.3,0.001,0.01,18.9,78.6
H01,2017,10,15,5,***,0.03,0.009,0.3,0.001,0.01,18.1,81.9
H01,2017,10,15,6,***,0.032,0.008,0.3,0.001,0.011,17.5,85.7
H01,2017,10,15,7,***,0.02,0.007,0.3,0.004,0.014,17.9,87.7
H01,2017,10,15,8,***,0.026,0.013,0.4,0.003,0.014,18,86.3
H01,2017,10,15,9,***,0.016,0.02,0.4,0.001,0.01,18.5,78.4
H01,2017,10,15,10,***,0.018,0.018,0.4,0.002,0.012,18.5,81.2
H01,2017,10,15,11,***,0.023,0.019,0.4,0.003,0.01,18.3,79.8
H01,2017,10,15,12,***,0.018,0.02,0.4,0.002,0.011,18.1,84.1
H01,2017,10,15,13,***,0.027,0.018,0.5,0.003,0.012,18.1,86.9
H01,2017,10,15,14,***,0.027,0.017,0.5,0.004,0.014,18.1,88.9
H01,2017,10,15,15,***,0.017,0.018,0.4,0.004,0.015,18,88.6
H01,2017,10,15,16,***,0.028,0.018,0.6,0.004,0.018,17.9,86.7
H01,2017,10,15,17,***,0.04,0.015,0.6,0.004,0.02,18.1,87.4
H01,2017,10,15,18,***,0.015,0.017,0.5,0.003,0.016,18,86.6
H01,2017,10,15,19,***,0.02,0.015,0.3,0.002,0.017,18.1,85
H01,2017,10,15,20,***,***,0.016,0.3,0.001,0.017,18,85
H01,2017,10,15,21,***,***,0.018,0.2,0.001,0.014,17.4,86.3
H01,2017,10,15,22,***,***,0.02,0.3,0.001,0.012,17.4,87
H01,2017,10,15,23,***,***,0.014,0.3,0.002,0.015,17.1,88.1
H01,2017,10,15,24,***,***,0.021,0.2,0,0.008,16,84.4
H01,2017,10,16,1,***,***,0.025,0.2,0,0.006,15.5,87
H01,2017,10,16,2,***,***,0.028,0.2,0,0.005,15.1,88.8
H01,2017,10,16,3,***,***,0.021,0.2,0,0.009,15.1,89.8
H01,2017,10,16,4,***,***,0.018,0.2,0.001,0.011,15.3,90.2
H01,2017,10,16,5,***,***,0.016,0.2,0.002,0.013,15.2,90.3
H01,2017,10,16,6,***,***,0.01,0.2,0.006,0.019,15.3,90.3
H01,2017,10,16,7,***,***,0.006,0.3,0.017,0.025,15.4,90.3
H01,2017,10,16,8,***,***,0.006,0.3,0.021,0.026,15.6,90.2
H01,2017,10,16,9,***,***,0.008,0.3,0.017,0.025,15.4,89.9
H01,2017,10,16,10,***,***,0.008,0.3,0.02,0.027,15.9,90
H01,2017,10,16,11,***,***,0.01,0.3,0.016,0.025,16,89
H01,2017,10,16,12,***,***,0.007,0.3,0.019,0.028,16.1,89.4
H01,2017,10,16,13,***,***,0.008,0.3,0.016,0.026,16.2,89.5
H01,2017,10,16,14,***,***,0.01,0.3,0.013,0.025,16.5,89.9
H01,2017,10,16,15,***,***,0.004,0.4,0.031,0.034,16.7,90.4
H01,2017,10,16,16,***,***,0.009,0.3,0.018,0.03,16.9,89.6
H01,2017,10,16,17,***,***,0.003,0.4,0.033,0.041,17.1,89.1
H01,2017,10,16,18,***,***,0.004,0.4,0.026,0.034,17.2,89.3
H01,2017,10,16,19,***,***,0.005,0.4,0.016,0.028,17,88.3
H01,2017,10,16,20,***,***,0.012,0.3,0.002,0.024,16.6,86.2
H01,2017,10,16,21,***,***,0.014,0.3,0.003,0.022,15.8,87.4
H01,2017,10,16,22,***,***,0.022,0.2,0.001,0.019,15.3,89.1
H01,2017,10,16,23,***,***,0.028,0.2,0.001,0.014,15.1,89.9
H01,2017,10,16,24,***,***,0.03,0.2,0.001,0.012,15.1,90.4
H01,2017,10,17,1,***,***,0.028,0.2,0,0.011,15.1,90.6
H01,2017,10,17,2,***,***,0.023,0.2,0.001,0.015,15.1,90.8
H01,2017,10,17,3,***,***,0.021,0.2,0.001,0.016,15.1,90.8
H01,2017,10,17,4,***,***,0.022,0.2,0.001,0.014,15.2,90.6
H01,2017,10,17,5,***,***,0.018,0.2,0.002,0.017,15.1,90.3
H01,2017,10,17,6,***,***,0.012,0.2,0.008,0.021,15.1,90.2
H01,2017,10,17,7,***,***,0.007,0.2,0.018,0.029,15.1,90.2
H01,2017,10,17,8,***,***,0.005,0.3,0.036,0.037,15.5,90.3
H01,2017,10,17,9,***,***,0.009,0.3,0.033,0.034,15.5,89.3
H01,2017,10,17,10,***,***,0.009,0.3,0.037,0.032,15.5,88.7
H01,2017,10,17,11,***,***,0.01,0.2,0.037,0.038,15.4,88.7
H01,2017,10,17,12,***,***,0.011,0.3,0.049,0.043,15.3,87.6
H01,2017,10,17,13,***,***,0.008,0.3,0.038,0.043,16.4,85.5
H01,2017,10,17,14,***,***,0.011,0.3,0.037,0.039,16.8,79.5
H01,2017,10,17,15,***,***,0.013,0.2,0.024,0.047,17.2,77.7
H01,2017,10,17,16,***,***,0.01,0.3,0.041,0.065,16.8,79.8
H01,2017,10,17,17,***,***,0.004,0.4,0.028,0.051,16.3,83.4
H01,2017,10,17,18,***,***,0.001,0.5,0.041,0.045,15.6,86.4
H01,2017,10,17,19,***,***,0.001,0.5,0.033,0.042,15.1,87.7
H01,2017,10,17,20,***,***,0.001,0.7,0.044,0.041,14.8,88.6
H01,2017,10,17,21,***,***,0.001,0.7,0.047,0.036,14.6,89.3
H01,2017,10,17,22,***,***,0.001,0.8,0.046,0.032,14.8,90.1
H01,2017,10,17,23,***,***,0.001,0.9,0.069,0.034,15,90.8
H01,2017,10,17,24,***,***,0.001,0.7,0.039,0.039,15.3,90.7
H01,2017,10,18,1,***,***,0.003,0.5,0.014,0.033,15.3,78.2
H01,2017,10,18,2,***,***,0.016,0.3,0.002,0.019,15.8,67.2
H01,2017,10,18,3,***,***,0.022,0.3,0.001,0.015,15.5,64.2
H01,2017,10,18,4,***,***,0.018,0.3,0.003,0.018,15.1,66.4
H01,2017,10,18,5,***,***,0.015,0.3,0.004,0.022,14.8,67.9
H01,2017,10,18,6,***,***,0.004,0.3,0.018,0.034,14.3,68.7
H01,2017,10,18,7,***,***,0.003,0.4,0.042,0.04,14.9,68.4
H01,2017,10,18,8,***,***,0.011,0.3,0.024,0.029,16.3,58.9
H01,2017,10,18,9,***,***,0.019,0.3,0.013,0.022,17.7,53.7
H01,2017,10,18,10,***,***,0.022,0.2,0.011,0.019,18.3,50.6
H01,2017,10,18,11,***,***,0.025,0.2,0.009,0.014,19.8,47.7
H01,2017,10,18,12,***,***,0.025,0.2,0.016,0.023,20.7,44.5
H01,2017,10,18,13,***,***,0.026,0.2,0.016,0.023,20.7,45.6
H01,2017,10,18,14,***,***,0.022,0.1,0.024,0.033,20.8,46.9
H01,2017,10,18,15,***,***,0.017,0.2,0.035,0.037,20.4,47.5
H01,2017,10,18,16,***,***,0.011,0.2,0.036,0.044,20.1,47.4
H01,2017,10,18,17,***,***,0.008,0.3,0.03,0.049,19.5,49.5
H01,2017,10,18,18,***,***,0.003,0.3,0.029,0.054,18.9,54.5
H01,2017,10,18,19,***,***,0.007,0.4,0.008,0.04,18.6,63
H01,2017,10,18,20,***,***,0.011,0.3,0.005,0.032,17.9,70.7
H01,2017,10,18,21,***,***,0.023,0.3,0.001,0.02,17.1,73.6
H01,2017,10,18,22,***,***,0.027,0.3,0,0.016,16.7,73.5
H01,2017,10,18,23,***,***,0.017,0.4,0.001,0.022,16.7,76.3
H01,2017,10,18,24,***,***,0.015,0.4,0.002,0.021,16.5,76
H01,2017,10,19,1,***,***,0.011,***,***,***,15.8,84
H01,2017,10,19,2,***,***,0.014,0.3,***,***,15.3,87.2
H01,2017,10,19,3,***,***,0.019,0.3,0.002,0.015,15,88.3
H01,2017,10,19,4,***,***,0.015,0.3,0.004,0.018,14.3,88.9
H01,2017,10,19,5,***,***,0.016,0.2,0.005,0.022,13.9,88.8
H01,2017,10,19,6,***,***,0.023,0.2,0.002,0.018,13,87.1
H01,2017,10,19,7,***,***,0.024,0.2,0.002,0.017,13.1,88.3
H01,2017,10,19,8,***,***,0.016,0.2,0.01,0.025,13.5,89.9
H01,2017,10,19,9,***,***,0.006,0.4,0.025,0.035,14.2,90
H01,2017,10,19,10,***,***,0.008,0.4,0.038,0.032,14.6,89.7
H01,2017,10,19,11,***,***,0.016,0.4,0.017,0.027,15.5,83.9
H01,2017,10,19,12,***,***,0.01,0.4,0.029,0.036,15.6,87.3
H01,2017,10,19,13,***,***,0.016,0.4,0.015,0.026,16,84.6
H01,2017,10,19,14,***,***,0.012,0.3,0.025,0.03,16.2,84.6
H01,2017,10,19,15,***,***,0.009,0.4,0.038,0.032,15.9,85.9
H01,2017,10,19,16,***,***,0.01,0.3,0.016,0.031,16.1,85.5
H01,2017,10,19,17,***,***,0.009,0.3,0.017,0.032,16.2,85
H01,2017,10,19,18,***,***,0.007,0.4,0.018,0.032,16.3,84.7
H01,2017,10,19,19,***,***,0.009,0.5,0.018,0.027,16.2,85
H01,2017,10,19,20,***,***,0.011,0.5,0.007,0.025,15.9,85.8
H01,2017,10,19,21,***,***,0.01,0.5,0.004,0.023,16,84.9
H01,2017,10,19,22,***,***,0.007,0.5,0.004,0.025,16.3,83.5
H01,2017,10,19,23,***,***,0.007,0.5,0.006,0.027,16.1,83.9
H01,2017,10,19,24,***,***,0.012,0.4,0.003,0.02,15.8,84.5
H01,2017,10,20,1,***,***,0.014,0.4,0.002,0.016,15.7,86.8
H01,2017,10,20,2,***,***,0.013,0.3,0.002,0.016,15.6,87.9
H01,2017,10,20,3,***,***,0.016,0.3,0.002,0.015,15.6,89
H01,2017,10,20,4,***,***,0.013,0.3,0.002,0.017,15.7,89.9
H01,2017,10,20,5,***,***,0.007,0.4,0.009,0.023,15.8,90.5
H01,2017,10,20,6,***,***,0.004,0.4,0.016,0.026,15.9,90.6
H01,2017,10,20,7,***,***,0.003,0.4,0.026,0.029,16.1,90.4
H01,2017,10,20,8,***,***,0.005,0.4,0.018,0.024,16.5,88.7
H01,2017,10,20,9,***,***,0.006,0.5,0.015,0.021,17.6,83.7
H01,2017,10,20,10,***,***,0.005,0.5,0.051,0.028,18.3,79.9
H01,2017,10,20,11,***,***,0.006,0.5,0.059,0.025,***,73.2
H01,2017,10,20,12,***,***,0.006,0.4,0.055,0.032,***,***
H01,2017,10,20,13,***,***,0.008,0.4,0.036,0.028,***,***
H01,2017,10,20,14,***,0.034,0.005,0.5,0.062,0.028,***,***
H01,2017,10,20,15,***,0.03,0.004,0.5,0.054,0.045,***,***
H01,2017,10,20,16,***,0.028,0.003,0.5,0.066,0.046,***,***
H01,2017,10,20,17,***,0.029,0.003,0.5,0.042,0.039,***,***
H01,2017,10,20,18,***,0.037,0.002,0.6,0.034,0.043,***,***
H01,2017,10,20,19,***,0.033,0.005,0.4,0.01,0.032,***,***
H01,2017,10,20,20,***,0.028,0.003,0.5,0.013,0.033,***,***
H01,2017,10,20,21,***,0.022,0.004,0.4,0.007,0.03,***,***
H01,2017,10,20,22,***,0.026,0.007,0.3,0.004,0.024,***,***
H01,2017,10,20,23,***,0.034,0.003,0.4,0.008,0.026,***,***
H01,2017,10,20,24,***,0.045,0.001,0.4,0.01,0.027,***,***
H01,2017,10,21,1,***,0.043,0.002,0.3,0.005,0.025,***,***
H01,2017,10,21,2,***,0.029,0.003,0.3,0.005,0.021,***,***
H01,2017,10,21,3,***,0.037,0.001,0.3,0.011,0.021,***,***
H01,2017,10,21,4,***,0.025,0.001,0.3,0.014,0.02,***,***
H01,2017,10,21,5,***,0.034,0.001,0.3,0.014,0.019,***,***
H01,2017,10,21,6,***,0.019,0.001,0.3,0.015,0.018,***,***
H01,2017,10,21,7,***,0.029,0.004,0.2,0.016,0.019,***,***
H01,2017,10,21,8,***,0.032,0.006,0.3,0.019,0.024,***,***
H01,2017,10,21,9,***,0.023,0.003,0.3,0.026,0.028,***,***
H01,2017,10,21,10,***,0.037,0.003,0.3,0.028,0.028,***,***
H01,2017,10,21,11,***,0.026,0.003,0.4,0.031,0.028,***,***
H01,2017,10,21,12,***,0.044,0.002,0.5,0.047,0.03,***,***
H01,2017,10,21,13,***,0.033,0.003,0.4,0.036,0.026,***,***
H01,2017,10,21,14,***,0.035,0.002,0.5,0.034,0.025,***,***
H01,2017,10,21,15,***,0.04,0.002,0.5,0.041,0.024,***,***
H01,2017,10,21,16,***,0.041,0.002,0.4,0.025,0.025,***,***
H01,2017,10,21,17,***,0.033,0.002,0.4,0.018,0.022,***,***
H01,2017,10,21,18,***,0.032,0.001,0.5,0.025,0.023,***,***
H01,2017,10,21,19,***,0.037,0.001,0.6,0.036,0.023,***,***
H01,2017,10,21,20,***,0.046,0.002,0.6,0.042,0.022,***,***